• In Romania
  • List of Countries
  • For 7 days
  • Water Temperature
  • Satellite Maps
  • Weather Map
  • Weather Widgets
  • user-avatar
    Login

    Hourly Weather Graz

    Today, 29 March, Wednesday

    Time Temperature Precipitation Wind Pressure Humidity
    00:00 +7°C° 0 mm 1 mps 728 mmHg 86%
    01:00 +8°C° 0 mm 1 mps 728 mmHg 84%
    02:00 +7°C° 0 mm 2 mps 728 mmHg 86%
    03:00 +7°C° 0 mm 2 mps 729 mmHg 87%
    04:00 +7°C° 0 mm 2 mps 729 mmHg 89%
    05:00 +7°C° 0 mm 2 mps 729 mmHg 87%
    06:00 +8°C° 0 mm 2 mps 729 mmHg 86%
    07:00 +9°C° 0 mm 1 mps 730 mmHg 79%
    08:00 +12°C° 0 mm 1 mps 730 mmHg 71%
    09:00 +15°C° 0 mm 1 mps 730 mmHg 63%
    10:00 +18°C° 0 mm 1 mps 730 mmHg 55%
    11:00 +19°C° 0 mm 1 mps 730 mmHg 52%
    12:00 +20°C° 0 mm 1 mps 730 mmHg 49%
    13:00 +21°C° 0 mm 1 mps 730 mmHg 46%
    14:00 +20°C° 0 mm 1 mps 729 mmHg 48%
    15:00 +20°C° 0 mm 1 mps 729 mmHg 51%
    16:00 +19°C° 0 mm 1 mps 729 mmHg 54%
    17:00 +16°C° 0 mm 1 mps 729 mmHg 63%
    18:00 +14°C° 0 mm 1 mps 729 mmHg 71%
    19:00 +11°C° 0 mm 1 mps 729 mmHg 80%
    20:00 +11°C° 0 mm 1 mps 729 mmHg 82%
    21:00 +11°C° 0 mm 1 mps 729 mmHg 84%
    22:00 +10°C° 0 mm 1 mps 730 mmHg 85%
    23:00 +9°C° 0 mm 2 mps 730 mmHg 87%

    Tomorrow, 30 March, Thursday

    Time Temperature Precipitation Wind Pressure Humidity
    00:00 +9°C° 0 mm 2 mps 730 mmHg 88%
    01:00 +8°C° 0 mm 2 mps 730 mmHg 90%
    02:00 +8°C° 0 mm 2 mps 730 mmHg 90%
    03:00 +9°C° 0 mm 1 mps 730 mmHg 91%
    04:00 +8°C° 0 mm 1 mps 730 mmHg 92%
    05:00 +9°C° 0 mm 1 mps 731 mmHg 91%
    06:00 +9°C° 0 mm 1 mps 731 mmHg 89%
    07:00 +10°C° 0 mm 1 mps 731 mmHg 87%
    08:00 +12°C° 0 mm 1 mps 731 mmHg 78%
    09:00 +14°C° 0 mm 1 mps 732 mmHg 69%
    10:00 +16°C° 0 mm 0 mps 732 mmHg 60%
    11:00 +16°C° 0 mm 0 mps 732 mmHg 58%
    12:00 +19°C° 0 mm 1 mps 732 mmHg 56%
    13:00 +19°C° 0 mm 1 mps 731 mmHg 54%
    14:00 +19°C° 0 mm 1 mps 731 mmHg 56%
    15:00 +19°C° 0 mm 1 mps 731 mmHg 58%
    16:00 +19°C° 0 mm 1 mps 730 mmHg 59%
    17:00 +16°C° 0 mm 1 mps 730 mmHg 69%
    18:00 +14°C° 0 mm 1 mps 730 mmHg 78%
    19:00 +12°C° 0 mm 1 mps 730 mmHg 88%
    20:00 +11°C° 0 mm 1 mps 730 mmHg 90%
    21:00 +10°C° 0 mm 1 mps 730 mmHg 92%
    22:00 +10°C° 0 mm 1 mps 731 mmHg 94%
    23:00 +9°C° 0 mm 1 mps 730 mmHg 94%

    Day after tomorrow, 31 March, Friday

    Time Temperature Precipitation Wind Pressure Humidity
    00:00 +8°C° 0 mm 0 mps 730 mmHg 95%
    01:00 +8°C° 0 mm 0 mps 730 mmHg 96%
    02:00 +8°C° 0 mm 0 mps 730 mmHg 96%
    03:00 +9°C° 0 mm 1 mps 729 mmHg 96%
    04:00 +8°C° 0 mm 1 mps 729 mmHg 97%
    05:00 +9°C° 0 mm 1 mps 729 mmHg 95%
    06:00 +10°C° 0 mm 1 mps 729 mmHg 94%
    07:00 +11°C° 0 mm 1 mps 729 mmHg 93%
    08:00 +13°C° 0 mm 1 mps 729 mmHg 86%
    09:00 +14°C° 0 mm 2 mps 729 mmHg 78%
    10:00 +16°C° 0 mm 2 mps 729 mmHg 70%
    11:00 +17°C° 0 mm 2 mps 728 mmHg 68%
    12:00 +17°C° 0 mm 2 mps 728 mmHg 65%
    13:00 +18°C° 0 mm 3 mps 727 mmHg 62%
    14:00 +18°C° 0 mm 3 mps 727 mmHg 62%
    15:00 +18°C° 0 mm 3 mps 726 mmHg 63%
    16:00 +18°C° 0 mm 3 mps 726 mmHg 64%
    17:00 +16°C° 0 mm 2 mps 726 mmHg 72%
    18:00 +14°C° 0 mm 2 mps 726 mmHg 80%
    19:00 +12°C° 0 mm 2 mps 725 mmHg 89%
    20:00 +12°C° 0 mm 1 mps 725 mmHg 91%
    21:00 +11°C° 0 mm 1 mps 725 mmHg 92%
    22:00 +10°C° 0 mm 1 mps 725 mmHg 94%
    23:00 +10°C° 0 mm 1 mps 725 mmHg 95%

    1 April, Saturday

    Time Temperature Precipitation Wind Pressure Humidity
    00:00 +9°C° 0 mm 1 mps 725 mmHg 95%
    01:00 +9°C° 0 mm 1 mps 724 mmHg 96%
    02:00 +8°C° 0 mm 1 mps 724 mmHg 96%
    03:00 +8°C° 0 mm 1 mps 724 mmHg 96%
    04:00 +8°C° 0 mm 1 mps 723 mmHg 96%
    05:00 +9°C° 0 mm 1 mps 723 mmHg 94%
    06:00 +10°C° 0 mm 1 mps 724 mmHg 92%
    07:00 +10°C° 0 mm 1 mps 724 mmHg 90%
    08:00 +12°C° 0 mm 1 mps 724 mmHg 81%
    09:00 +14°C° 0 mm 2 mps 724 mmHg 72%
    10:00 +16°C° 0 mm 2 mps 724 mmHg 63%
    11:00 +17°C° 0 mm 2 mps 723 mmHg 58%
    12:00 +18°C° 0 mm 3 mps 723 mmHg 54%
    13:00 +19°C° 0 mm 3 mps 723 mmHg 50%
    14:00 +19°C° 0 mm 3 mps 723 mmHg 50%
    15:00 +19°C° 0 mm 3 mps 722 mmHg 50%
    16:00 +19°C° 0 mm 3 mps 722 mmHg 50%
    17:00 +17°C° 0 mm 3 mps 722 mmHg 59%
    18:00 +14°C° 0 mm 2 mps 722 mmHg 69%
    19:00 +12°C° 0 mm 2 mps 722 mmHg 79%
    20:00 +10°C° 0 mm 2 mps 722 mmHg 81%
    21:00 +9°C° 0 mm 2 mps 723 mmHg 83%
    22:00 +8°C° 0 mm 2 mps 723 mmHg 85%
    23:00 +8°C° 0 mm 1 mps 723 mmHg 87%

    2 April, Sunday

    Time Temperature Precipitation Wind Pressure Humidity
    00:00 +8°C° 0 mm 1 mps 723 mmHg 88%
    01:00 +7°C° 0 mm 1 mps 723 mmHg 90%
    02:00 +7°C° 0 mm 1 mps 723 mmHg 90%
    03:00 +7°C° 0 mm 1 mps 723 mmHg 90%
    04:00 +6°C° 0 mm 1 mps 723 mmHg 91%
    05:00 +7°C° 0 mm 1 mps 724 mmHg 86%
    06:00 +8°C° 0 mm 1 mps 724 mmHg 80%
    07:00 +10°C° 0 mm 1 mps 725 mmHg 75%
    08:00 +12°C° 0 mm 1 mps 725 mmHg 65%
    09:00 +15°C° 0 mm 1 mps 726 mmHg 55%
    10:00 +18°C° 0 mm 1 mps 726 mmHg 44%
    11:00 +19°C° 0 mm 1 mps 726 mmHg 42%
    12:00 +20°C° 0 mm 1 mps 726 mmHg 39%
    13:00 +21°C° 0 mm 1 mps 726 mmHg 37%
    14:00 +20°C° 0 mm 2 mps 726 mmHg 39%
    15:00 +19°C° 0 mm 2 mps 726 mmHg 42%
    16:00 +19°C° 0 mm 2 mps 726 mmHg 44%
    17:00 +16°C° 0 mm 1 mps 726 mmHg 57%
    18:00 +13°C° 0 mm 1 mps 726 mmHg 70%
    19:00 +10°C° 0 mm 1 mps 726 mmHg 84%
    20:00 +9°C° 0 mm 1 mps 726 mmHg 85%
    21:00 +8°C° 0 mm 0 mps 726 mmHg 87%
    22:00 +7°C° 0 mm 0 mps 727 mmHg 89%
    23:00 +7°C° 0 mm 0 mps 727 mmHg 88%

    3 April, Monday

    Time Temperature Precipitation Wind Pressure Humidity
    00:00 +8°C° 0 mm 1 mps 727 mmHg 88%
    01:00 +8°C° 0 mm 1 mps 727 mmHg 88%
    02:00 +8°C° 0 mm 1 mps 727 mmHg 87%
    03:00 +8°C° 0 mm 1 mps 727 mmHg 86%
    04:00 +8°C° 0 mm 1 mps 727 mmHg 85%
    05:00 +9°C° 0 mm 1 mps 728 mmHg 84%
    06:00 +10°C° 0 mm 1 mps 728 mmHg 82%
    07:00 +11°C° 0 mm 1 mps 728 mmHg 81%
    08:00 +13°C° 0 mm 1 mps 729 mmHg 72%
    09:00 +15°C° 0 mm 1 mps 729 mmHg 63%
    10:00 +19°C° 0 mm 1 mps 729 mmHg 55%
    11:00 +19°C° 0.2 mm 1 mps 729 mmHg 53%
    12:00 +19°C° 0.2 mm 2 mps 729 mmHg 52%
    13:00 +19°C° 0.2 mm 2 mps 729 mmHg 50%
    14:00 +19°C° 0.5 mm 2 mps 728 mmHg 53%
    15:00 +19°C° 0.5 mm 2 mps 728 mmHg 56%
    16:00 +19°C° 0.5 mm 1 mps 728 mmHg 58%
    17:00 +16°C° 0.5 mm 1 mps 728 mmHg 68%
    18:00 +14°C° 0.5 mm 1 mps 728 mmHg 78%
    19:00 +11°C° 0.5 mm 1 mps 728 mmHg 87%
    20:00 +11°C° 0.4 mm 1 mps 728 mmHg 89%
    21:00 +11°C° 0.4 mm 1 mps 728 mmHg 90%
    22:00 +11°C° 0.4 mm 1 mps 728 mmHg 92%
    23:00 +10°C° 0.1 mm 1 mps 728 mmHg 92%
    Show more